www.pogodaiklimat.ru

Погода и климат >> Архив погоды >> Мексика >> Мазатлан


ПОГОДА в Мазатлане

  • Прогноз погоды в Мазатлане
  • Монитор погоды в Мазатлане

АРХИВ ПОГОДЫ в Мазатлане

Время (UTC), дата Ветер
(напр.,м/с)
 
Видим.   Явления Облачность Т
(С)
Тd
(С)
f
(%)
Тe
(С)
Тes
(С)
Комфортность P
(гПа)
Po
(гПа)
Тmin
(С)
Tmax
(С)
R
(мм)
R24
(мм)
S
(см)
03 12.09 СЗ 3 10 км 5/1 700 м
[Sc diur, vesp Ac trans]
+30.3 +24.7 72 +43 +43 опасность
перегрева
1010.2 1009.8
06 12.09 С 1 10 км ясно +29.0 +24.0 74 +40 +40 очень
душно
1010.8 1010.3 +26.3 +34.3
09 12.09 С 1 10 км ясно +27.3 +23.6 80 +37 +37 очень
душно
1010.7 1010.3
15 12.09 В 1 20 км ясно +29.6 +24.5 74 +42 +47 опасность
перегрева
1010.3 1009.9
18 12.09 З 1 20 км 3/1 1000 м
[Sc diur, vesp Cs]
+32.7 +24.7 63 +46 +64 опасность
перегрева
1011.1 1010.7 +25.8 +34.1
21 12.09 З 2 20 км 4/1 840 м
[Cu med, cong Cs]
+33.0 +26.3 68 +49 +62 опасность
перегрева
1009.2 1008.8
00 13.09 СЗ 3 20 км 5/1 900 м
[Sc diur, vesp As trans]
+32.6 +25.4 66 +47 +48 опасность
перегрева
1008.5 1008.1 +25.8 +34.3
03 13.09 СВ 1 10 км зарница {гроза, морось} 4/4 700 м
[Cb cap]
+30.7 +25.4 73 +45 +45 опасность
перегрева
1009.1 1008.7 0.0
06 13.09 ЮВ 2 10 км {гроза, морось} 10/0 2000 м
[As op]
+28.3 +24.5 80 +40 +40 очень
душно
1010.1 1009.7 +25.8 +34.3 0.0
09 13.09 Ю 2 10 км в посл. час морось {гроза} 9/3 800 м
[Cb calv Ac und]
+27.5 +25.5 89 +40 +40 очень
душно
1010.1 1009.7 0.0
12 13.09 СВ 1 10 км {морось} 4/1 420 м
[Sc diur, vesp Ac trans]
+27.3 +24.0 82 +38 +38 очень
душно
1010.3 1009.8 +26.6 +34.3 0.0
15 13.09 СВ 1 20 км 6/0 2000 м
[Ac trans Cs]
+28.7 +24.4 78 +41 +45 опасность
перегрева
1009.9 1009.5
18 13.09 З 1 20 км 4/1 840 м
[Cu med, cong Cs]
+32.0 +25.2 67 +46 +63 опасность
перегрева
1010.9 1010.4 +26.6 +33.3
21 13.09 СЗ 1 20 км 3/1 1020 м
[Cu med, cong Cs]
+33.3 +25.2 63 +48 +63 опасность
перегрева
1009.6 1009.2
00 14.09 З 3 20 км 6/0 2000 м
[As op]
+33.1 +25.4 64 +48 +48 опасность
перегрева
1009.0 1008.6 +26.6 +34.8
03 14.09 Ю 1 10 км зарница 9/1 900 м
[Cb cap Ac As]
+30.8 +23.8 66 +42 +42 опасность
перегрева
1010.7 1010.3
06 14.09 СВ 1 10 км слаб. морось {гроза} 10/0 2000 м
[As op]
+27.2 +24.8 87 +39 +39 очень
душно
1012.2 1011.7 +26.4 +34.8 0.2
09 14.09 В 1 10 км слаб. морось {гроза} туман 10/8 330 м
[Cb cap Ac As]
+26.6 +23.9 85 +37 +37 очень
душно
1012.1 1011.7 0.3
15 14.09 С 1 20 км 9/6 900 м
[Sc As op]
+26.2 +23.7 86 +36 +37 очень
душно
1012.6 1012.2
18 14.09 З 1 20 км {морось} 10/10 2000 м
[Frnb]
+30.7 +23.2 64 +41 +41 опасность
перегрева
1012.9 1012.4 +23.7 +33.2 0.0
21 14.09 З 3 20 км 10/1 1170 м
[Cu med, cong Cs]
+32.3 +23.0 58 +42 +51 опасность
перегрева
1010.3 1009.9
00 15.09 СЗ 5 20 км 5/1 720 м
[Cb calv Cs]
+30.4 +24.6 71 +43 +44 опасность
перегрева
1009.8 1009.4 +23.7 +33.6
03 15.09 С 3 10 км зарница 6/1 600 м
[Cb cap Ac As]
+29.5 +24.7 75 +42 +42 опасность
перегрева
1010.8 1010.3
06 15.09 ЮВ 1 10 км зарница {гроза} 9/1 630 м
[Cb cap Ac und]
+29.4 +24.4 75 +42 +42 опасность
перегрева
1012.0 1011.6 +23.7 +33.6
09 15.09 Ю 1 10 км в посл. час гроза 10/10 210 м
[Cb cap]
+26.8 +25.2 91 +39 +39 очень
душно
1013.5 1013.1 0.4
12 15.09 С 1 10 км слаб. морось {гроза} туман 10/10 150 м
[Cb cap]
+25.4 +24.2 93 +35 +35 очень
душно
1010.8 1010.4 +24.8 +33.6 2
15 15.09 С 1 20 км {морось} 8/0 2000 м
[As trans]
+26.8 +23.9 84 +37 +40 очень
душно
1011.6 1011.2 0.0
18 15.09 Ю 1 20 км {морось} 4/0
[Ac und]
+31.7 +24.5 66 +44 +59 опасность
перегрева
1012.0 1011.6 +24.7 +32.8 0.0
21 15.09 Ю 2 20 км 3/0
[Ac trans]
+32.4 +23.1 58 +43 +55 опасность
перегрева
1009.6 1009.1
00 16.09 СЗ 3 20 км 1/1 1020 м
[Cb calv]
+30.9 +22.8 62 +41 +42 опасность
перегрева
1009.6 1009.1 +24.7 +33.0
03 16.09 С 1 10 км 3/3 900 м
[Sc diur, vesp]
+29.5 +22.3 65 +38 +38 очень
душно
1010.6 1010.2
06 16.09 СВ 1 10 км ясно +28.9 +24.6 78 +41 +41 опасность
перегрева
1011.2 1010.8 +24.7 +33.0
09 16.09 С 1 10 км ясно +27.4 +24.6 85 +39 +39 очень
душно
1011.2 1010.8
12 16.09 ЮВ 1 10 км ясно +26.7 +24.4 87 +37 +37 очень
душно
1011.4 1010.9 +26.1 +33.0
15 16.09 СВ 1 20 км 1/1 630 м
[Cu hum]
+29.2 +24.2 74 +41 +45 опасность
перегрева
1012.0 1011.6
18 16.09 З 1 20 км 1/1 1110 м
[Cb calv]
+32.2 +23.4 60 +43 +62 опасность
перегрева
1011.8 1011.4 +25.7 +33.2
21 16.09 З 4 20 км 1/1 1000 м
[Cb calv]
+32.8 +24.9 63 +46 +55 опасность
перегрева
1009.7 1009.2
00 17.09 З 5 20 км 1/1 930 м
[Cb calv]
+32.1 +24.7 65 +45 +46 опасность
перегрева
1008.9 1008.4 +25.7 +34.6
03 17.09 СЗ 5 10 км зарница {гроза} 3/1 700 м
[Cb cap Ac trans]
+30.5 +24.9 72 +44 +44 опасность
перегрева
1009.8 1009.4
06 17.09 СЗ 1 10 км ясно +29.7 +25.3 77 +43 +43 опасность
перегрева
1010.1 1009.7 +34.6
09 17.09 С 1 10 км ясно +28.8 +25.5 82 +42 +42 опасность
перегрева
1010.5 1010.1
12 17.09 С 1 10 км 8/0 2000 м
[Ac und]
+28.3 +25.3 84 +41 +41 опасность
перегрева
1010.2 1009.9 +27.9 +34.6
15 17.09 С 1 20 км 4/3 600 м
[Cb calv Ac trans]
+29.9 +25.1 75 +43 +46 опасность
перегрева
1010.9 1010.5
18 17.09 З 3 20 км 3/3 960 м
[Cu hum]
+32.6 +24.9 64 +46 +56 опасность
перегрева
1011.0 1010.6 +27.5 +33.3
21 17.09 З 4 20 км 1/1 800 м
[Cu hum]
+33.3 +26.8 69 +51 +60 опасность
перегрева
1009.3 1008.8
00 18.09 С 1 20 км 4/4 660 м
[Cb cap]
+32.8 +27.0 72 +51 +52 опасность
перегрева
1008.6 1008.2 +27.5 +34.4
03 18.09 С 2 10 км 8/8 840 м
[Cb cap]
+29.6 +22.7 66 +39 +39 очень
душно
1010.4 1010.0
06 18.09 С 1 10 км 4/0
[Ac trans]
+28.4 +22.0 68 +37 +37 очень
душно
1010.8 1010.3 +27.5 +34.4
09 18.09 СВ 1 10 км 9/0
[Ac und]
+28.2 +23.0 73 +38 +38 очень
душно
1008.9 1008.5
15 18.09 СВ 3 20 км 9/0 2000 м
[Ac und]
+28.8 +24.5 78 +41 +42 опасность
перегрева
1010.7 1010.3
18 18.09 Ю 2 20 км 9/3 800 м
[Cb calv Ac As]
+31.4 +25.1 69 +45 +50 опасность
перегрева
1011.8 1011.4 +26.6 +32.4
21 18.09 З 3 20 км 8/3 1020 м
[Cu med, cong Cs]
+33.2 +24.9 62 +47 +54 опасность
перегрева
1009.5 1009.0
00 19.09 СЗ 3 20 км 8/1 720 м
[Cu med, cong Cs]
+31.5 +25.7 71 +46 +47 опасность
перегрева
1008.4 1007.9 +26.6 +35.5

 

Местоположение метеостанции Мазатлан (Мексика): широта 23.20 долгота -106.40 высота над уровнем моря 4 м.

В архиве по умолчанию представлена погода в Мазатлане за последнюю неделю. Архивные данные за месяц целиком и за предыдущие месяцы, начиная с января 2011 года, Вы можете получить, выбрав интересующий диапазон дат из раскрывающегося списка и нажав кнопку "Ввод!".


*Определитесь, кто Вы:
робот инопланетянин человек

Внимание! Время в таблицах - всемирное. Для получения местного времени необходимо прибавить поправку, которая равна -7 ч.

Смотрите также архив погоды в соседних городах и на ближайших метеорологических станциях:

Погода в Кульякане (Мексика) (205 км)
Погода в Дуранго (Мексика) (206 км)
Погода в Тепеуанесе (Мексика) (248 км)
Погода в Тепике (Мексика) (249 км)
Погода в Сомбререте (Мексика) (290 км)
Погода в Уэхукаре (Мексика) (324 км)
Погода в Колотлане (Мексика) (344 км)
Погода в Торреоне (Мексика) (399 км)
Погода в Сакатекасе (Мексика) (402 км)
Погода в Ла-Пасе (Мексика) (412 км)

Пояснения к столбцам:

Ветер - указаны скорость ветра в м/с - средняя за 10 мин, порывы в срок и между сроками (в фигурных скобках) и направление, откуда дует ветер: С - северный, СВ - северо-восточный, В - восточный, ЮВ - юго-восточный, Ю - южный, ЮЗ - юго-западный, З - западный, СЗ - северо-западный.
Видимость - горизонтальная дальность видимости в метрах или километрах. При видимости от 1 до 10 км при отсутствии осадков обычно наблюдается дымка, при ухудшении видимости до 1 км и менее - туман. В сухую погоду видимость может ухудшаться дымом, пылью или мглою.
Явления - указаны атмосферные явления, наблюдавшиеся в срок или в последний час перед сроком; фигурными скобками обозначены явления, наблюдавшиеся между сроками (за 1-3 часа до срока); квадратными скобками обозначены град или гололедные отложения с указанием их диаметра в мм.
Облачность - указаны через наклонную черту общая и нижняя облачность в баллах и высота нижней границы облаков в метрах; квадратными скобками обозначены формы облаков: Ci - перистые, Cs - перисто-слоистые, Cc - перисто-кучевые, Ac - высококучевые, As - высокослоистые, Sc - слоисто-кучевые, Ns - слоисто-дождевые, Cu - кучевые, Cb - кучево-дождевые. Подробнее классификацию облаков см. в Атласе облаков (PDF).
T - Температура воздуха - температура, измеренная на высоте 2 м над землей.
Td - Температура точки росы - температура, при понижении до которой содержащийся в воздухе водяной пар достигнет насыщения.
f - Относительная влажность воздуха - влажноcть воздуха, измеренная на высоте 2 м над землей.
Te - Эффективная температура - температура, которую ощущает одетый по сезону человек в тени. Характеристика душности погоды. При расчете учитывается влияние влажности воздуха и скорости ветра на теплоощущения человека.
Tes - Эффективная температура на солнце - температура, которую ощущает человек, с поправкой на солнечный нагрев. Характеристика знойности погоды. Зависит от высоты солнца над горизонтом, облачности и скорости ветра. Ночью, в пасмурную погоду, а также при ветре 12 м/с и более поправка равна нулю.
P - Атмосферное давление - приведенное к уровню моря атмосферное давление.
Po - Атмосферное давление - измеренное на уровне метеостанции атмосферное давление.
Tmin - Минимальная температура - минимум температуры воздуха на высоте 2 м над землей.
Tmax - Максимальная температура - максимум температуры воздуха на высоте 2 м над землей.
R - Количество осадков - Количество выпавших осадков за период времени, мм. При наведении курсора мыши на число - период времени, за который выпало указанное количество осадков.
R24 - Количество осадков - Количество выпавших осадков за 24 часа, мм.
S - Снежный покров - Высота снежного покрова, см. При наведении курсора мыши на число - состояние снежного покрова и степень покрытия местности в баллах.